GW6974 Weather Reports


time (UTC)temp
C
wind
direction
speed
KPH
gust
KPH
rain 1hr
cm
rain 24hr
cm
rain mn
cm
humidity
%
barometer
mb
20260504235007 21 185 0.0 3.2 0.00 0.00 0.00 46 1014.9
20260504234525 21 185 0.0 3.2 0.00 0.00 0.00 44 1014.9
20260504234009 22 185 0.0 3.2 0.00 0.00 0.00 44 1014.9
20260504233504 22 185 0.0 3.2 0.00 0.00 0.00 41 1015.1
20260504233010 22 185 0.0 3.2 0.00 0.00 0.00 41 1015.1
20260504232506 22 186 0.0 6.4 0.00 0.00 0.00 41 1015.1
20260504232003 23 158 1.6 8.0 0.00 0.00 0.00 38 1015.1
20260504231516 23 161 3.2 8.0 0.00 0.00 0.00 38 1015.1
20260504231008 23 283 1.6 8.0 0.00 0.00 0.00 37 1015.1
20260504230506 23 242 0.0 8.0 0.00 0.00 0.00 38 1015.0
20260504230021 23 217 3.2 6.4 0.00 0.00 0.00 37 1015.0
20260504225505 23 167 1.6 6.4 0.00 0.00 0.00 39 1015.1
20260504225010 23 150 1.6 6.4 0.00 0.00 0.00 37 1015.2
20260504224533 23 219 1.6 8.0 0.00 0.00 0.00 36 1015.2
20260504224003 23 162 3.2 8.0 0.00 0.00 0.00 36 1015.2
20260504223505 23 261 3.2 6.4 0.00 0.00 0.00 36 1015.2
20260504223008 24 229 1.6 9.7 0.00 0.00 0.00 38 1015.2
20260504222504 23 179 1.6 9.7 0.00 0.00 0.00 38 1015.1
20260504222003 23 174 4.8 12.9 0.00 0.00 0.00 36 1015.2
20260504221516 23 160 3.2 12.9 0.00 0.00 0.00 34 1015.2
20260504221004 24 168 3.2 12.9 0.00 0.00 0.00 34 1015.3
20260504220510 24 148 4.8 11.3 0.00 0.00 0.00 33 1015.3
20260504220018 24 188 4.8 11.3 0.00 0.00 0.00 36 1015.3
20260504215506 24 236 3.2 8.0 0.00 0.00 0.00 37 1015.3
20260504215006 24 207 3.2 8.0 0.00 0.00 0.00 36 1015.2
20260504214526 24 188 3.2 14.5 0.00 0.00 0.00 36 1015.1
20260504214008 24 113 3.2 14.5 0.00 0.00 0.00 34 1015.1
20260504213514 24 205 4.8 11.3 0.00 0.00 0.00 35 1015.1
20260504213005 24 141 4.8 11.3 0.00 0.00 0.00 1015.3
20260504212504 24 180 3.2 17.7 0.00 0.00 0.00 1015.2
20260504212008 24 191 6.4 17.7 0.00 0.00 0.00 1015.2
20260504211519 24 181 1.6 9.7 0.00 0.00 0.00 33 1015.2
20260504211005 24 148 1.6 12.9 0.00 0.00 0.00 33 1015.2
20260504210504 25 135 6.4 17.7 0.00 0.00 0.00 33 1015.2
20260504210032 24 133 6.4 17.7 0.00 0.00 0.00 33 1015.3
20260504205505 24 266 6.4 17.7 0.00 0.00 0.00 34 1015.3
20260504205005 23 176 6.4 19.3 0.00 0.00 0.00 34 1015.3
20260504204531 24 198 9.7 19.3 0.00 0.00 0.00 35 1015.4
20260504204010 24 184 8.0 14.5 0.00 0.00 0.00 34 1015.4
20260504203513 24 273 1.6 14.5 0.00 0.00 0.00 34 1015.4
20260504203027 24 185 6.4 12.9 0.00 0.00 0.00 38 1015.5
20260504202507 24 336 3.2 16.1 0.00 0.00 0.00 36 1015.5
20260504202003 24 205 6.4 16.1 0.00 0.00 0.00 33 1015.7
20260504201508 25 233 1.6 14.5 0.00 0.00 0.00 34 1015.6
20260504201003 23 272 6.4 14.5 0.00 0.00 0.00 35 1015.8
20260504200503 24 139 3.2 14.5 0.00 0.00 0.00 32 1015.6
20260504200014 24 319 6.4 14.5 0.00 0.00 0.00 31 1015.8
20260504195504 25 217 8.0 14.5 0.00 0.00 0.00 34 1015.8
20260504195008 25 288 3.2 9.7 0.00 0.00 0.00 36 1015.9
20260504194521 25 194 3.2 9.7 0.00 0.00 0.00 1015.9
20260504194008 24 117 3.2 11.3 0.00 0.00 0.00 1015.9
20260504193506 24 129 6.4 11.3 0.00 0.00 0.00 1016.1
20260504193024 23 161 3.2 14.5 0.00 0.00 0.00 1016.2
20260504192509 23 49 4.8 14.5 0.00 0.00 0.00 35 1016.2
20260504192014 24 163 6.4 14.5 0.00 0.00 0.00 35 1016.3
20260504191531 24 106 6.4 11.3 0.00 0.00 0.00 1016.3
20260504191004 24 360 0.0 14.5 0.00 0.00 0.00 1016.3
20260504190506 23 303 6.4 14.5 0.00 0.00 0.00 1016.5
20260504190014 24 200 4.8 8.0 0.00 0.00 0.00 37 1016.6
20260504185504 24 312 1.6 12.9 0.00 0.00 0.00 37 1016.8
20260504185007 23 294 6.4 12.9 0.00 0.00 0.00 36 1016.9
20260504184518 23 190 4.8 11.3 0.00 0.00 0.00 37 1016.9
20260504184009 23 229 6.4 11.3 0.00 0.00 0.00 38 1016.9
20260504183514 24 293 1.6 8.0 0.00 0.00 0.00 40 1016.8
20260504183022 24 165 3.2 8.0 0.00 0.00 0.00 38 1017.0
20260504182511 23 156 1.6 11.3 0.00 0.00 0.00 38 1016.8
20260504182012 23 86 6.4 14.5 0.00 0.00 0.00 37 1017.0
20260504181526 23 176 4.8 14.5 0.00 0.00 0.00 39 1017.1
20260504181008 23 193 1.6 9.7 0.00 0.00 0.00 39 1017.1
20260504180514 24 57 3.2 8.0 0.00 0.00 0.00 36 1017.2
20260504180028 23 168 1.6 9.7 0.00 0.00 0.00 38 1017.4
20260504175503 23 252 4.8 9.7 0.00 0.00 0.00 39 1017.4
20260504175003 23 240 3.2 14.5 0.00 0.00 0.00 39 1017.6
20260504174518 22 206 6.4 14.5 0.00 0.00 0.00 39 1017.6
20260504174007 23 212 4.8 9.7 0.00 0.00 0.00 39 1017.7
20260504173509 22 146 1.6 11.3 0.00 0.00 0.00 38 1017.7
20260504173023 22 182 3.2 11.3 0.00 0.00 0.00 39 1017.9
20260504172509 22 141 4.8 11.3 0.00 0.00 0.00 41 1017.8
20260504172012 22 211 1.6 6.4 0.00 0.00 0.00 40 1017.9
20260504171526 23 25 3.2 6.4 0.00 0.00 0.00 40 1017.9
20260504171008 22 277 3.2 12.9 0.00 0.00 0.00 41 1018.0
20260504170517 22 222 4.8 12.9 0.00 0.00 0.00 42 1018.0
20260504151006 20 188 3.2 12.9 0.00 0.00 0.00 48 1018.5
20260504150511 19 181 6.4 12.9 0.00 0.00 0.00 47 1018.6
20260504141002 16 65 0.0 3.2 0.00 0.00 0.00 65 1019.3
20260504140502 15 66 0.0 3.2 0.00 0.00 0.00 65 1019.4
20260504130509 10 14 0.0 3.2 0.00 0.00 0.00 86 1019.4
20260504110507 5 6 0.0 3.2 0.00 0.00 0.00 92 1018.9
20260504100507 5 10 0.0 3.2 0.00 0.00 0.00 92 1018.6
20260504081531 5 10 0.0 0.0 0.00 0.00 0.00 91 1018.6
20260504081010 6 10 0.0 0.0 0.00 0.00 0.00 91 1018.6
20260504080503 6 10 0.0 3.2 0.00 0.00 0.00 91 1018.5
20260504050511 7 354 0.0 3.2 0.00 0.00 0.00 88 1019.6
20260504045510 8 354 0.0 3.2 0.00 0.00 0.00 88 1019.5
20260504045009 8 336 0.0 0.0 0.00 0.00 0.00 88 1019.5
20260504044529 8 336 0.0 3.2 0.00 0.00 0.00 88 1019.6
20260504044005 8 336 0.0 3.2 0.00 0.00 0.00 87 1019.6
20260504043504 8 336 0.0 3.2 0.00 0.00 0.00 87 1019.6
20260504043022 8 336 0.0 3.2 0.00 0.00 0.00 87 1019.7
20260504042507 8 336 0.0 0.0 0.00 0.00 0.00 87 1019.8
20260504042006 8 336 0.0 0.0 0.00 0.00 0.00 87 1019.8
20260504041537 8 336 0.0 0.0 0.00 0.00 0.00 86 1019.8
20260504041003 8 336 0.0 0.0 0.00 0.00 0.00 85 1019.9
20260504040505 8 336 0.0 3.2 0.00 0.00 0.00 85 1019.8
20260504040015 8 336 0.0 0.0 0.00 0.00 0.00 86 1019.9
20260504035505 8 336 0.0 0.0 0.00 0.00 0.00 86 1019.9
20260504035004 8 336 0.0 0.0 0.00 0.00 0.00 86 1019.8
20260504034514 8 336 0.0 0.0 0.00 0.00 0.00 86 1019.9
20260504034004 8 336 0.0 0.0 0.00 0.00 0.00 85 1019.8
20260504033504 9 336 0.0 0.0 0.00 0.00 0.00 85 1019.9
20260504033018 9 336 0.0 3.2 0.00 0.00 0.00 84 1019.9
20260504032504 9 336 0.0 3.2 0.00 0.00 0.00 84 1020.0
20260504032007 9 336 0.0 3.2 0.00 0.00 0.00 84 1019.9
20260504031522 9 336 0.0 0.0 0.00 0.00 0.00 83 1019.9
20260504031005 10 336 0.0 3.2 0.00 0.00 0.00 82 1019.9
20260504030508 10 336 0.0 3.2 0.00 0.00 0.00 82 1019.8
20260504030005 10 336 0.0 3.2 0.00 0.00 0.00 81 1019.9
20260504025503 10 333 0.0 3.2 0.00 0.00 0.00 81 1019.9
20260504025004 10 333 0.0 3.2 0.00 0.00 0.00 82 1019.9
20260504024509 10 328 0.0 3.2 0.00 0.00 0.00 81 1019.9
20260504024005 10 328 0.0 3.2 0.00 0.00 0.00 81 1019.6
20260504023505 10 328 0.0 3.2 0.00 0.00 0.00 80 1019.6
20260504023016 10 328 0.0 3.2 0.00 0.00 0.00 78 1019.6
20260504022506 11 285 0.0 3.2 0.00 0.00 0.00 78 1019.5
20260504022006 11 283 0.0 0.0 0.00 0.00 0.00 78 1019.5
20260504021520 11 283 0.0 0.0 0.00 0.00 0.00 77 1019.5
20260504021007 11 283 0.0 0.0 0.00 0.00 0.00 76 1019.4
20260504020507 11 283 0.0 0.0 0.00 0.00 0.00 75 1019.4
20260504020034 11 283 0.0 0.0 0.00 0.00 0.00 74 1019.3
20260504015508 11 283 0.0 0.0 0.00 0.00 0.00 74 1019.2
20260504015010 12 283 0.0 0.0 0.00 0.00 0.00 73 1019.1
20260504014511 12 283 0.0 0.0 0.00 0.00 0.00 72 1019.1
20260504014006 12 283 0.0 0.0 0.00 0.00 0.00 71 1019.0
20260504013508 12 283 0.0 0.0 0.00 0.00 0.00 70 1018.9
20260504013015 12 283 0.0 3.2 0.00 0.00 0.00 69 1018.8
20260504012508 12 283 0.0 3.2 0.00 0.00 0.00 68 1018.8
20260504012004 13 283 0.0 3.2 0.00 0.00 0.00 66 1018.9
20260504011520 13 283 0.0 3.2 0.00 0.00 0.00 64 1018.9
20260504011006 13 283 0.0 0.0 0.00 0.00 0.00 61 1018.8
20260504010511 13 283 0.0 0.0 0.00 0.00 0.00 59 1018.6
20260504010022 13 283 0.0 0.0 0.00 0.00 0.00 58 1018.6
20260504005507 14 283 0.0 3.2 0.00 0.00 0.00 57 1018.6
20260504005011 14 283 0.0 3.2 0.00 0.00 0.00 55 1018.7
20260504004526 15 283 0.0 0.0 0.00 0.00 0.00 54 1018.6
20260504004009 15 283 0.0 0.0 0.00 0.00 0.00 52 1018.5
20260504003504 15 283 0.0 3.2 0.00 0.00 0.00 53 1018.4
20260504003009 15 283 0.0 3.2 0.00 0.00 0.00 53 1018.3
20260504002502 16 283 0.0 3.2 0.00 0.00 0.00 52 1018.3
20260504002006 16 283 0.0 3.2 0.00 0.00 0.00 51 1018.3
20260504001533 16 283 0.0 3.2 0.00 0.00 0.00 51 1018.3
20260504001008 16 278 0.0 3.2 0.00 0.00 0.00 52 1018.3
20260504000508 17 278 0.0 3.2 0.00 0.00 0.00 51 1018.2
20260504000022 17 278 0.0 3.2 0.00 0.00 0.00 48 1018.2
20260503235506 17 278 0.0 3.2 0.00 0.00 0.00 46 1018.2